Flood From: 18-02-2018 10:00 Until: 19-02-2018 06:00 warning for: Flood Level: Yellow info button

Although rather usual in this region, locally or potentially dangerous phenomena are expected. (such as local winds, summer thunderstorms, rising streams or high waves) Be aware and pay attention to the latest weather updates, especially if you carry out activities exposed to weather or close to a stream or shoreline. 


Meteo18 Weather Cam more information Meteo18 Weather Cam


Thunder radar more information blitzortung!


Rain radar more information rain snow radar


Visit our other weather sites:

Template documentation
and downloads

And another site



Weather Underground History page Text

Daily Summary for July 11, 2016 Units:  Metric    English   Both
« Previous Day
Next Day »
Daily Weekly Monthly Yearly Custom
  High: Low: Average:
Temperature: -17.8 °C -8.2 °C -6.3 °C
Dew Point: -17.8 °C -10.4 °C -9.6 °C
Humidity: Humidity % 47 % 70 %
Wind Speed: 0 km/h 0 km/h 0.6 km/h
Wind Gust: 0 km/h - -
Wind:- - SSW
Pressure: 0 hPa 34293.4 hPa -
Precipitation: 0 mm    
Historical Graphs
 
 
Tabular Data for July 11, 2016
Time Temperature Dew Point Pressure Wind Wind Speed Wind Gust Humidity Rainfall Rate (Hourly)
-17.8 °C -17.8 °C 0 hPa Calm     Humidity % 0 mm
00:02 -5.7 °C -9.6 °C 34293.4 hPa Calm   2.6 km/h 64 % 0 mm
00:07 -5.7 °C -9.9 °C 34293.4 hPa Calm   7.7 km/h 62 % 0 mm
00:12 -5.6 °C -9.8 °C 34293.4 hPa Calm   7.7 km/h 62 % 0 mm
00:17 -5.7 °C -9.9 °C 34293.4 hPa Calm   2.6 km/h 62 % 0 mm
00:22 -5.7 °C -9.9 °C 34293.4 hPa Calm   2.6 km/h 62 % 0 mm
00:27 -5.7 °C -9.9 °C 34293.4 hPa Calm   5.1 km/h 62 % 0 mm
00:32 -5.8 °C -10 °C 34293.4 hPa Calm   5.1 km/h 62 % 0 mm
00:42 -5.9 °C -9.9 °C 34293.4 hPa Calm   2.6 km/h 63 % 0 mm
00:47 -5.9 °C -9.9 °C 34293.4 hPa Calm   10.3 km/h 64 % 0 mm
00:52 -6 °C -9.8 °C 34303.6 hPa Calm   10.3 km/h 65 % 0 mm
00:57 -6.1 °C -9.9 °C 34303.6 hPa Calm   10.3 km/h 65 % 0 mm
01:02 -6.2 °C -9.8 °C 34303.6 hPa Calm   5.1 km/h 67 % 0 mm
01:07 -6.3 °C -9.7 °C 34303.6 hPa Calm     68 % 0 mm
01:12 -6.6 °C -9.7 °C 34303.6 hPa Calm     70 % 0 mm
01:22 -6.8 °C -9.7 °C 34303.6 hPa Calm     72 % 0 mm
01:27 -6.8 °C -9.7 °C 34303.6 hPa Calm   2.6 km/h 72 % 0 mm
01:32 -6.8 °C -9.7 °C 34303.6 hPa Calm   2.6 km/h 72 % 0 mm
01:37 -6.7 °C -9.5 °C 34303.6 hPa Calm   2.6 km/h 73 % 0 mm
01:42 -6.7 °C -9.5 °C 34303.6 hPa Calm     73 % 0 mm
01:47 -6.7 °C -9.5 °C 34303.6 hPa Calm     73 % 0 mm
01:52 -6.7 °C -9.5 °C 34303.6 hPa Calm     73 % 0 mm
01:57 -6.7 °C -9.4 °C 34303.6 hPa Calm   2.6 km/h 73 % 0 mm
02:02 -6.6 °C -9.4 °C 34303.6 hPa Calm   2.6 km/h 73 % 0 mm
02:07 -6.6 °C -9.4 °C 34303.6 hPa Calm   2.6 km/h 73 % 0 mm
02:12 -6.7 °C -9.5 °C 34303.6 hPa Calm     73 % 0 mm
02:17 -6.7 °C -9.5 °C 34303.6 hPa Calm     73 % 0 mm
02:22 -6.7 °C -9.4 °C 34303.6 hPa Calm     74 % 0 mm
02:27 -6.8 °C -9.4 °C 34303.6 hPa Calm     74 % 0 mm
02:32 -6.8 °C -9.4 °C 34303.6 hPa Calm     75 % 0 mm
02:37 -6.9 °C -9.4 °C 34303.6 hPa Calm     75 % 0 mm
02:42 -7 °C -9.4 °C 34303.6 hPa Calm     76 % 0 mm
02:47 -7.1 °C -9.4 °C 34303.6 hPa Calm     77 % 0 mm
02:52 -7.2 °C -9.4 °C 34303.6 hPa Calm     78 % 0 mm
02:57 -7.3 °C -9.4 °C 34303.6 hPa Calm     79 % 0 mm
03:02 -7.3 °C -9.3 °C 34303.6 hPa Calm     80 % 0 mm
03:07 -7.3 °C -9.3 °C 34303.6 hPa Calm     80 % 0 mm
03:12 -7.3 °C -9.2 °C 34303.6 hPa Calm     80 % 0 mm
03:17 -7.2 °C -9.2 °C 34303.6 hPa Calm     80 % 0 mm
03:22 -7.2 °C -9.2 °C 34313.7 hPa Calm     80 % 0 mm
03:27 -7.2 °C -9.1 °C 34303.6 hPa Calm     81 % 0 mm
03:32 -7.3 °C -9.1 °C 34313.7 hPa Calm     81 % 0 mm
03:37 -7.3 °C -9.1 °C 34313.7 hPa Calm     82 % 0 mm
03:42 -7.4 °C -9.1 °C 34313.7 hPa Calm     82 % 0 mm
03:57 -7.7 °C -9.3 °C 34303.6 hPa Calm     83 % 0 mm
04:02 -7.8 °C -9.5 °C 34303.6 hPa Calm     82 % 0 mm
04:07 -7.8 °C -9.4 °C 34303.6 hPa Calm     83 % 0 mm
04:12 -7.9 °C -9.6 °C 34303.6 hPa Calm     83 % 0 mm
04:17 -8 °C -9.5 °C 34313.7 hPa Calm     84 % 0 mm
04:22 -8 °C -9.5 °C 34313.7 hPa Calm     84 % 0 mm
04:27 -8 °C -9.5 °C 34313.7 hPa Calm     84 % 0 mm
04:32 -8 °C -9.4 °C 34313.7 hPa Calm     85 % 0 mm
04:37 -7.9 °C -9.4 °C 34313.7 hPa Calm     85 % 0 mm
04:42 -7.9 °C -9.4 °C 34313.7 hPa Calm     85 % 0 mm
04:47 -7.9 °C -9.3 °C 34313.7 hPa Calm     85 % 0 mm
04:52 -7.8 °C -9.3 °C 34313.7 hPa Calm     85 % 0 mm
04:57 -7.8 °C -9.3 °C 34313.7 hPa Calm     85 % 0 mm
05:02 -7.8 °C -9.2 °C 34313.7 hPa Calm     86 % 0 mm
05:07 -7.8 °C -9.2 °C 34313.7 hPa Calm     86 % 0 mm
05:12 -7.8 °C -9 °C 34313.7 hPa Calm     87 % 0 mm
05:17 -7.7 °C -8.9 °C 34313.7 hPa Calm     87 % 0 mm
05:27 -7.7 °C -8.9 °C 34313.7 hPa Calm     87 % 0 mm
05:32 -7.7 °C -9 °C 34327.3 hPa Calm     86 % 0 mm
05:37 -7.7 °C -9 °C 34327.3 hPa Calm     86 % 0 mm
05:42 -7.7 °C -9 °C 34327.3 hPa Calm     86 % 0 mm
05:47 -7.6 °C -8.9 °C 34327.3 hPa Calm     86 % 0 mm
05:52 -7.6 °C -8.9 °C 34327.3 hPa Calm     86 % 0 mm
05:57 -7.6 °C -8.9 °C 34327.3 hPa Calm     86 % 0 mm
06:02 -7.6 °C -8.9 °C 34327.3 hPa Calm     86 % 0 mm
06:12 -7.6 °C -8.9 °C 34337.4 hPa Calm     86 % 0 mm
06:17 -7.6 °C -8.9 °C 34337.4 hPa Calm     86 % 0 mm
06:22 -7.5 °C -8.8 °C 34337.4 hPa Calm     86 % 0 mm
06:27 -7.5 °C -8.8 °C 34337.4 hPa Calm     86 % 0 mm
06:32 -7.5 °C -8.8 °C 34337.4 hPa Calm     86 % 0 mm
06:37 -7.5 °C -8.8 °C 34337.4 hPa Calm     86 % 0 mm
06:42 -7.5 °C -8.8 °C 34337.4 hPa Calm     86 % 0 mm
06:47 -7.5 °C -8.8 °C 34337.4 hPa Calm     86 % 0 mm
06:52 -7.5 °C -8.8 °C 34347.6 hPa Calm     86 % 0 mm
06:57 -7.5 °C -8.7 °C 34347.6 hPa Calm     87 % 0 mm
07:02 -7.4 °C -8.7 °C 34337.4 hPa Calm     87 % 0 mm
07:07 -7.4 °C -8.7 °C 34347.6 hPa Calm     87 % 0 mm
07:12 -7.4 °C -8.7 °C 34347.6 hPa Calm     87 % 0 mm
07:22 -7.4 °C -8.7 °C 34347.6 hPa Calm     87 % 0 mm
07:32 -7.4 °C -8.7 °C 34347.6 hPa Calm     86 % 0 mm
07:37 -7.4 °C -8.8 °C 34347.6 hPa Calm     85 % 0 mm
07:42 -7.3 °C -8.9 °C 34347.6 hPa Calm     84 % 0 mm
07:47 -7.3 °C -8.9 °C 34337.4 hPa Calm     83 % 0 mm
07:52 -7.2 °C -8.9 °C 34347.6 hPa Calm     82 % 0 mm
07:57 -7.2 °C -9 °C 34347.6 hPa Calm     81 % 0 mm
08:02 -7.2 °C -9.1 °C 34347.6 hPa Calm     80 % 0 mm
08:12 -7.2 °C -9.3 °C 34347.6 hPa Calm     79 % 0 mm
08:17 -7.3 °C -9.6 °C 34347.6 hPa Calm     77 % 0 mm
08:22 -7.3 °C -9.6 °C 34347.6 hPa Calm     77 % 0 mm
08:32 -7.3 °C -9.6 °C 34347.6 hPa Calm     77 % 0 mm
08:37 -7.3 °C -9.6 °C 34347.6 hPa Calm     77 % 0 mm
08:42 -7.3 °C -9.6 °C 34347.6 hPa Calm     77 % 0 mm
08:47 -7.2 °C -9.6 °C 34347.6 hPa Calm     76 % 0 mm
08:52 -7.1 °C -9.6 °C 34347.6 hPa Calm     75 % 0 mm
08:57 -7.1 °C -9.6 °C 34347.6 hPa Calm     75 % 0 mm
09:02 -6.9 °C -9.6 °C 34347.6 hPa Calm     74 % 0 mm
09:07 -6.9 °C -9.7 °C 34347.6 hPa Calm     73 % 0 mm
09:12 -6.8 °C -9.6 °C 34361.1 hPa Calm     73 % 0 mm
09:17 -6.8 °C -9.6 °C 34347.6 hPa Calm     73 % 0 mm
09:22 -6.8 °C -9.7 °C 34361.1 hPa Calm     72 % 0 mm
09:27 -6.7 °C -9.6 °C 34361.1 hPa Calm     72 % 0 mm
09:32 -6.8 °C -9.6 °C 34361.1 hPa Calm     73 % 0 mm
09:37 -6.8 °C -9.6 °C 34361.1 hPa Calm     73 % 0 mm
09:42 -6.7 °C -9.5 °C 34361.1 hPa Calm     73 % 0 mm
09:47 -6.7 °C -9.7 °C 34361.1 hPa Calm     71 % 0 mm
09:52 -6.6 °C -9.7 °C 34361.1 hPa Calm     70 % 0 mm
09:57 -6.5 °C -9.8 °C 34361.1 hPa Calm     69 % 0 mm
10:02 -6.4 °C -9.9 °C 34347.6 hPa Calm     67 % 0 mm
10:07 -6.4 °C -10.1 °C 34347.6 hPa Calm     66 % 0 mm
10:12 -6.3 °C -10.1 °C 34347.6 hPa Calm     65 % 0 mm
10:17 -6.1 °C -10.3 °C 34347.6 hPa Calm     62 % 0 mm
10:22 -6.2 °C -10.4 °C 34361.1 hPa Calm     62 % 0 mm
10:27 -6.2 °C -10.2 °C 34361.1 hPa Calm     63 % 0 mm
10:32 -6 °C -10.1 °C 34361.1 hPa Calm     63 % 0 mm
10:37 -6 °C -10.3 °C 34361.1 hPa SW 5.1 km/h   61 % 0 mm
10:42 -5.8 °C -10.1 °C 34361.1 hPa Calm   10.3 km/h 62 % 0 mm
10:52 -5.1 °C -10.1 °C 34371.3 hPa Calm   7.7 km/h 57 % 0 mm
10:57 -4.9 °C -9.8 °C 34361.1 hPa Calm   7.7 km/h 58 % 0 mm
11:02 -4.9 °C -10.1 °C 34371.3 hPa WSW 2.6 km/h 12.9 km/h 56 % 0 mm
11:07 -5.1 °C -10.2 °C 34371.3 hPa Calm   12.9 km/h 56 % 0 mm
11:12 -5.2 °C -10 °C 34361.1 hPa WSW 5.1 km/h 12.9 km/h 58 % 0 mm
11:17 -5.1 °C -9.9 °C 34361.1 hPa Calm   12.9 km/h 58 % 0 mm
11:22 -5.1 °C -10.2 °C 34361.1 hPa WSW 5.1 km/h 12.9 km/h 56 % 0 mm
11:32 -5.1 °C -10.1 °C 34361.1 hPa SW 7.7 km/h 18.2 km/h 57 % 0 mm
11:37 -5.1 °C -9.9 °C 34361.1 hPa Calm   18.2 km/h 58 % 0 mm
11:42 -4.8 °C -9.7 °C 34361.1 hPa WSW 2.6 km/h 18.2 km/h 58 % 0 mm
11:47 -4.9 °C -9.9 °C 34361.1 hPa Calm   18.2 km/h 57 % 0 mm
11:52 -5 °C -9.8 °C 34361.1 hPa SW 2.6 km/h 15.6 km/h 58 % 0 mm
11:57 -5.1 °C -9.9 °C 34361.1 hPa Calm   15.6 km/h 58 % 0 mm
12:02 -4.9 °C -9.8 °C 34361.1 hPa WSW 5.1 km/h 15.6 km/h 58 % 0 mm
12:07 -4.8 °C -9.8 °C 34361.1 hPa Calm   15.6 km/h 57 % 0 mm
12:12 -4.6 °C -10.1 °C 34361.1 hPa SW 7.7 km/h 20.8 km/h 54 % 0 mm
12:17 -4.8 °C -10.1 °C 34361.1 hPa West 7.7 km/h 20.8 km/h 55 % 0 mm
12:22 -4.9 °C -10.1 °C 34347.6 hPa West 10.3 km/h 20.8 km/h 56 % 0 mm
12:27 -4.9 °C -10.2 °C 34361.1 hPa WSW 5.1 km/h 15.6 km/h 55 % 0 mm
12:32 -4.7 °C -9.7 °C 34347.6 hPa Calm   15.6 km/h 57 % 0 mm
12:42 -4.3 °C -9.9 °C 34361.1 hPa WSW 7.7 km/h 18.2 km/h 53 % 0 mm
12:47 -4.3 °C -10.1 °C 34361.1 hPa Calm   18.2 km/h 52 % 0 mm
12:52 -4.3 °C -10.1 °C 34361.1 hPa SE 2.6 km/h 18.2 km/h 52 % 0 mm
12:57 -4.1 °C -9.9 °C 34361.1 hPa West 5.1 km/h 15.6 km/h 52 % 0 mm
13:02 -3.7 °C -9.6 °C 34347.6 hPa Calm   10.3 km/h 52 % 0 mm
13:07 -3.3 °C -9.6 °C 34347.6 hPa SSW 2.6 km/h 10.3 km/h 50 % 0 mm
13:12 -3.8 °C -10.2 °C 34347.6 hPa Calm   12.9 km/h 49 % 0 mm
13:17 -3.9 °C -10.1 °C 34361.1 hPa West 5.1 km/h 12.9 km/h 50 % 0 mm
13:22 -3.8 °C -10.2 °C 34347.6 hPa Calm   12.9 km/h 49 % 0 mm
13:27 -3.8 °C -10.1 °C 34347.6 hPa WNW 5.1 km/h 15.6 km/h 50 % 0 mm
13:32 -3.8 °C -10.2 °C 34347.6 hPa WSW 2.6 km/h 15.6 km/h 49 % 0 mm
13:37 -3.9 °C -10.1 °C 34361.1 hPa West 2.6 km/h 15.6 km/h 50 % 0 mm
13:42 -3.9 °C -10.1 °C 34347.6 hPa Calm   10.3 km/h 50 % 0 mm
13:47 -3.9 °C -9.9 °C 34347.6 hPa ENE 2.6 km/h 12.9 km/h 51 % 0 mm
13:52 -3.8 °C -10 °C 34347.6 hPa Calm   12.9 km/h 50 % 0 mm
13:57 -3.7 °C -10.2 °C 34347.6 hPa Calm   12.9 km/h 48 % 0 mm
14:02 -3.8 °C -10.2 °C 34347.6 hPa Calm   12.9 km/h 49 % 0 mm
14:07 -3.6 °C -9.8 °C 34347.6 hPa Calm   12.9 km/h 50 % 0 mm
14:12 -3.4 °C -10.2 °C 34347.6 hPa WSW 2.6 km/h 10.3 km/h 47 % 0 mm
14:17 -3.4 °C -9.7 °C 34347.6 hPa East 7.7 km/h 10.3 km/h 50 % 0 mm
14:22 -3.4 °C -10 °C 34347.6 hPa Calm   10.3 km/h 48 % 0 mm
14:27 -3.7 °C -9.4 °C 34347.6 hPa Calm   15.6 km/h 53 % 0 mm
14:32 -3.7 °C -9.9 °C 34347.6 hPa ENE 5.1 km/h 15.6 km/h 50 % 0 mm
14:37 -4 °C -10 °C 34347.6 hPa Calm   15.6 km/h 51 % 0 mm
14:42 -4 °C -9.8 °C 34347.6 hPa East 7.7 km/h 12.9 km/h 52 % 0 mm
14:47 -4 °C -9.5 °C 34347.6 hPa West 2.6 km/h 12.9 km/h 54 % 0 mm
14:52 -3.9 °C -9.6 °C 34347.6 hPa ESE 5.1 km/h 10.3 km/h 53 % 0 mm
14:57 -4 °C -9.7 °C 34347.6 hPa WSW 2.6 km/h 18.2 km/h 53 % 0 mm
15:02 -4.2 °C -9.9 °C 34347.6 hPa Calm   18.2 km/h 53 % 0 mm
15:07 -4.3 °C -9.6 °C 34347.6 hPa Calm   15.6 km/h 55 % 0 mm
15:12 -4.1 °C -9.6 °C 34347.6 hPa Calm   15.6 km/h 54 % 0 mm
15:17 -3.9 °C -9.6 °C 34347.6 hPa WSW 2.6 km/h 10.3 km/h 53 % 0 mm
15:22 -3.9 °C -9.8 °C 34347.6 hPa Calm   12.9 km/h 52 % 0 mm
15:32 -4.3 °C -9.8 °C 34347.6 hPa Calm   12.9 km/h 54 % 0 mm
15:37 -4.4 °C -9.7 °C 34361.1 hPa Calm   5.1 km/h 55 % 0 mm
15:42 -4.5 °C -9.8 °C 34347.6 hPa Calm   5.1 km/h 55 % 0 mm
15:47 -4.5 °C -9.8 °C 34347.6 hPa Calm   5.1 km/h 55 % 0 mm
15:52 -4.6 °C -9.9 °C 34347.6 hPa SW 2.6 km/h 7.7 km/h 55 % 0 mm
16:02 -4.6 °C -9.9 °C 34347.6 hPa Calm   7.7 km/h 55 % 0 mm
16:07 -4.6 °C -9.9 °C 34347.6 hPa Calm   7.7 km/h 55 % 0 mm
16:12 -4.6 °C -10.1 °C 34347.6 hPa Calm   10.3 km/h 54 % 0 mm
16:17 -4.7 °C -10 °C 34361.1 hPa Calm   10.3 km/h 55 % 0 mm
16:22 -4.8 °C -9.9 °C 34361.1 hPa Calm   10.3 km/h 56 % 0 mm
16:32 -4.9 °C -9.9 °C 34361.1 hPa Calm   7.7 km/h 57 % 0 mm
16:37 -4.9 °C -9.8 °C 34361.1 hPa Calm   7.7 km/h 58 % 0 mm
16:42 -4.9 °C -9.5 °C 34361.1 hPa Calm   5.1 km/h 60 % 0 mm
16:47 -4.9 °C -9.7 °C 34361.1 hPa Calm   12.9 km/h 58 % 0 mm
16:52 -4.9 °C -9.8 °C 34361.1 hPa Calm   12.9 km/h 58 % 0 mm
16:57 -5.1 °C -9.7 °C 34361.1 hPa ESE 2.6 km/h 12.9 km/h 59 % 0 mm
17:02 -5.2 °C -9.8 °C 34361.1 hPa Calm   10.3 km/h 59 % 0 mm
17:07 -5.3 °C -9.7 °C 34361.1 hPa East 5.1 km/h 10.3 km/h 61 % 0 mm
17:12 -5.5 °C -9.7 °C 34361.1 hPa Calm   10.3 km/h 62 % 0 mm
17:17 -5.6 °C -9.7 °C 34361.1 hPa Calm   10.3 km/h 63 % 0 mm
17:22 -5.6 °C -9.7 °C 34361.1 hPa Calm   7.7 km/h 63 % 0 mm
17:27 -5.7 °C -9.8 °C 34361.1 hPa Calm   5.1 km/h 63 % 0 mm
17:32 -5.7 °C -9.7 °C 34361.1 hPa Calm   5.1 km/h 64 % 0 mm
17:37 -5.8 °C -9.7 °C 34361.1 hPa Calm   5.1 km/h 64 % 0 mm
17:42 -5.7 °C -9.5 °C 34361.1 hPa Calm   10.3 km/h 65 % 0 mm
17:47 -5.5 °C -9.3 °C 34361.1 hPa Calm   10.3 km/h 65 % 0 mm
17:52 -5.4 °C -9.6 °C 34361.1 hPa Calm   5.1 km/h 63 % 0 mm
17:57 -5.4 °C -9.5 °C 34361.1 hPa SE 2.6 km/h 5.1 km/h 63 % 0 mm
18:02 -5.4 °C -9.5 °C 34361.1 hPa Calm   5.1 km/h 63 % 0 mm
18:07 -5.5 °C -9.7 °C 34361.1 hPa Calm   5.1 km/h 62 % 0 mm
18:12 -5.6 °C -9.4 °C 34361.1 hPa Calm   12.9 km/h 65 % 0 mm
18:17 -5.7 °C -9.8 °C 34361.1 hPa Calm   12.9 km/h 63 % 0 mm
18:22 -5.8 °C -9.7 °C 34347.6 hPa Calm   5.1 km/h 64 % 0 mm
18:27 -5.9 °C -9.7 °C 34347.6 hPa Calm   7.7 km/h 65 % 0 mm
18:32 -5.9 °C -9.7 °C 34347.6 hPa Calm   7.7 km/h 65 % 0 mm
18:42 -5.9 °C -9.7 °C 34347.6 hPa Calm   5.1 km/h 65 % 0 mm
18:52 -5.9 °C -9.6 °C 34361.1 hPa Calm   5.1 km/h 66 % 0 mm
18:57 -5.8 °C -9.5 °C 34361.1 hPa Calm   5.1 km/h 66 % 0 mm
19:02 -5.7 °C -9.3 °C 34347.6 hPa Calm   5.1 km/h 66 % 0 mm
19:07 -5.6 °C -9.4 °C 34347.6 hPa Calm   5.1 km/h 65 % 0 mm
19:12 -5.6 °C -9.4 °C 34347.6 hPa Calm   7.7 km/h 65 % 0 mm
19:17 -5.6 °C -9.6 °C 34347.6 hPa Calm   7.7 km/h 64 % 0 mm
19:22 -5.6 °C -9.3 °C 34347.6 hPa Calm   5.1 km/h 66 % 0 mm
19:27 -5.6 °C -9.4 °C 34347.6 hPa Calm   5.1 km/h 65 % 0 mm
19:32 -5.7 °C -9.3 °C 34347.6 hPa Calm   5.1 km/h 66 % 0 mm
19:37 -5.8 °C -9.4 °C 34347.6 hPa Calm   7.7 km/h 67 % 0 mm
19:42 -6 °C -9.4 °C 34347.6 hPa Calm   7.7 km/h 68 % 0 mm
19:47 -6.1 °C -9.4 °C 34347.6 hPa Calm   7.7 km/h 68 % 0 mm
19:52 -6.1 °C -9.4 °C 34347.6 hPa Calm   2.6 km/h 69 % 0 mm
19:57 -6.2 °C -9.2 °C 34347.6 hPa Calm   2.6 km/h 71 % 0 mm
20:02 -6.3 °C -9.4 °C 34347.6 hPa Calm   2.6 km/h 70 % 0 mm
20:07 -6.3 °C -9.5 °C 34347.6 hPa Calm   2.6 km/h 70 % 0 mm
20:12 -6.4 °C -9.6 °C 34361.1 hPa Calm   2.6 km/h 70 % 0 mm
20:17 -6.5 °C -9.7 °C 34361.1 hPa Calm   2.6 km/h 70 % 0 mm
20:22 -6.5 °C -9.5 °C 34361.1 hPa Calm   7.7 km/h 71 % 0 mm
20:27 -6.6 °C -9.4 °C 34361.1 hPa Calm   7.7 km/h 72 % 0 mm
20:32 -6.6 °C -9.4 °C 34361.1 hPa Calm   2.6 km/h 72 % 0 mm
20:37 -6.6 °C -9.5 °C 34361.1 hPa Calm   2.6 km/h 72 % 0 mm
20:42 -6.7 °C -9.6 °C 34361.1 hPa Calm   2.6 km/h 72 % 0 mm
20:47 -6.7 °C -9.5 °C 34371.3 hPa Calm   2.6 km/h 73 % 0 mm
20:52 -6.8 °C -9.8 °C 34371.3 hPa Calm   2.6 km/h 71 % 0 mm
20:57 -6.8 °C -9.8 °C 34371.3 hPa Calm   7.7 km/h 71 % 0 mm
21:02 -6.9 °C -9.8 °C 34371.3 hPa Calm   7.7 km/h 72 % 0 mm
21:07 -7 °C -9.8 °C 34371.3 hPa Calm   7.7 km/h 73 % 0 mm
21:17 -7.1 °C -9.7 °C 34371.3 hPa Calm   5.1 km/h 74 % 0 mm
21:22 -7.2 °C -9.6 °C 34371.3 hPa Calm   10.3 km/h 76 % 0 mm
21:27 -7.4 °C -9.7 °C 34371.3 hPa WSW 5.1 km/h 15.6 km/h 77 % 0 mm
21:32 -7.5 °C -9.6 °C 34371.3 hPa Calm   15.6 km/h 79 % 0 mm
21:37 -7.6 °C -9.6 °C 34371.3 hPa Calm   15.6 km/h 80 % 0 mm
21:42 -7.7 °C -9.5 °C 34371.3 hPa Calm   15.6 km/h 81 % 0 mm
21:47 -7.7 °C -9.4 °C 34371.3 hPa WSW 2.6 km/h 7.7 km/h 82 % 0 mm
21:52 -7.8 °C -9.4 °C 34371.3 hPa Calm   7.7 km/h 83 % 0 mm
22:02 -7.8 °C -9.3 °C 34371.3 hPa Calm   7.7 km/h 84 % 0 mm
22:07 -7.9 °C -9.3 °C 34371.3 hPa Calm   7.7 km/h 85 % 0 mm
22:12 -7.9 °C -9.3 °C 34371.3 hPa Calm   5.1 km/h 85 % 0 mm
22:17 -7.9 °C -9.3 °C 34384.8 hPa Calm   2.6 km/h 86 % 0 mm
22:22 -7.9 °C -9.4 °C 34384.8 hPa Calm   2.6 km/h 85 % 0 mm
22:27 -8 °C -9.3 °C 34384.8 hPa Calm   2.6 km/h 86 % 0 mm
22:32 -8 °C -9.3 °C 34384.8 hPa Calm   2.6 km/h 86 % 0 mm
22:37 -8 °C -9.3 °C 34384.8 hPa Calm   2.6 km/h 86 % 0 mm
22:42 -8 °C -9.3 °C 34384.8 hPa Calm   2.6 km/h 86 % 0 mm
22:47 -8 °C -9.3 °C 34384.8 hPa Calm   2.6 km/h 86 % 0 mm
22:52 -8 °C -9.3 °C 34384.8 hPa Calm   2.6 km/h 86 % 0 mm
22:57 -8 °C -9.3 °C 34384.8 hPa Calm   2.6 km/h 86 % 0 mm
23:02 -8 °C -9.3 °C 34384.8 hPa Calm   2.6 km/h 86 % 0 mm
23:07 -8 °C -9.3 °C 34384.8 hPa Calm   2.6 km/h 86 % 0 mm
23:12 -8 °C -9.3 °C 34384.8 hPa Calm   2.6 km/h 86 % 0 mm
23:17 -8 °C -9.3 °C 34384.8 hPa Calm   2.6 km/h 86 % 0 mm
23:22 -8.1 °C -9.4 °C 34384.8 hPa Calm     86 % 0 mm
23:27 -8.1 °C -9.4 °C 34384.8 hPa Calm   2.6 km/h 86 % 0 mm
23:32 -8.1 °C -9.3 °C 34384.8 hPa Calm   2.6 km/h 87 % 0 mm
23:37 -8.2 °C -9.4 °C 34384.8 hPa Calm     87 % 0 mm
23:42 -8.2 °C -9.4 °C 34384.8 hPa Calm     87 % 0 mm
23:47 -8.2 °C -9.3 °C 34384.8 hPa Calm   2.6 km/h 88 % 0 mm
23:52 -8.2 °C -9.3 °C 34384.8 hPa Calm   2.6 km/h 88 % 0 mm
23:57 -8.2 °C -9.2 °C 34384.8 hPa Calm     89 % 0 mm
Meteo18
Compliments of Weather Underground - 4 mb

Script developed by  Jim McMurry - jmcmurry@mwt.net Adapted for the template by  Wim van der Kuil - Leuven-Template.eu

You find our weather info also at:

European Weather Network

Weather Underground

Equipment we use:

Weather-station
Davis Vue

Weather-program
Meteobridge

Weather-server
Raspberry PI 2 B+

Provider
1 and 1

Davis Vue

Meteobridge

Raspberry PI 2 B+

1 and 1